When you browse on this site, cookies collect data to enhance your experience and personalize the content and advertising you see.
Visit our Privacy Policy to learn more. By continuing to use the site, you agree to this use of cookies and data.
  • In Hungary
  • List of Countries
  • For 7 days
  • Water Temperature
  • Weather Map
  • News
  • Weather Widgets
  • user-avatar
    Login

    Hourly Weather Krasnoarmeyskiy

    Today, 17 October, Thursday

    Time Temperature Precipitation Wind Pressure Humidity
    00:00 +16°C° 0 mm 2 mps 760 mmHg 66%
    01:00 +15°C° 0 mm 2 mps 760 mmHg 68%
    02:00 +15°C° 0 mm 2 mps 760 mmHg 71%
    03:00 +14°C° 0 mm 2 mps 760 mmHg 74%
    04:00 +14°C° 0 mm 1 mps 760 mmHg 76%
    05:00 +14°C° 0 mm 1 mps 760 mmHg 78%
    06:00 +13°C° 0 mm 1 mps 760 mmHg 79%
    07:00 +15°C° 0 mm 1 mps 760 mmHg 74%
    08:00 +16°C° 0 mm 1 mps 760 mmHg 68%
    09:00 +19°C° 0 mm 1 mps 760 mmHg 63%
    10:00 +21°C° 0 mm 1 mps 760 mmHg 56%
    11:00 +23°C° 0 mm 1 mps 760 mmHg 49%
    12:00 +25°C° 0 mm 1 mps 760 mmHg 43%
    13:00 +26°C° 0 mm 1 mps 760 mmHg 41%
    14:00 +26°C° 0 mm 1 mps 760 mmHg 40%
    15:00 +27°C° 0 mm 1 mps 760 mmHg 39%
    16:00 +25°C° 0 mm 1 mps 760 mmHg 45%
    17:00 +23°C° 0 mm 1 mps 760 mmHg 52%
    18:00 +19°C° 0 mm 0 mps 759 mmHg 58%
    19:00 +20°C° 0 mm 1 mps 759 mmHg 61%
    20:00 +19°C° 0 mm 1 mps 759 mmHg 64%
    21:00 +19°C° 0 mm 1 mps 759 mmHg 67%
    22:00 +18°C° 0 mm 1 mps 759 mmHg 68%
    23:00 +16°C° 0 mm 0 mps 759 mmHg 69%

    Tomorrow, 18 October, Friday

    Time Temperature Precipitation Wind Pressure Humidity
    00:00 +16°C° 0 mm 0 mps 759 mmHg 70%
    01:00 +15°C° 0 mm 0 mps 759 mmHg 71%
    02:00 +15°C° 0 mm 0 mps 759 mmHg 72%
    03:00 +14°C° 0 mm 0 mps 759 mmHg 73%
    04:00 +14°C° 0 mm 0 mps 759 mmHg 73%
    05:00 +14°C° 0 mm 0 mps 759 mmHg 74%
    06:00 +14°C° 0 mm 0 mps 759 mmHg 74%
    07:00 +15°C° 0 mm 0 mps 759 mmHg 68%
    08:00 +17°C° 0 mm 0 mps 759 mmHg 62%
    09:00 +19°C° 0 mm 0 mps 759 mmHg 57%
    10:00 +20°C° 0 mm 0 mps 759 mmHg 51%
    11:00 +24°C° 0 mm 1 mps 759 mmHg 46%
    12:00 +26°C° 0 mm 1 mps 759 mmHg 41%
    13:00 +26°C° 0 mm 1 mps 759 mmHg 40%
    14:00 +27°C° 0 mm 1 mps 759 mmHg 39%
    15:00 +27°C° 0 mm 1 mps 758 mmHg 38%
    16:00 +25°C° 0 mm 1 mps 758 mmHg 43%
    17:00 +21°C° 0 mm 0 mps 758 mmHg 49%
    18:00 +19°C° 0 mm 0 mps 758 mmHg 54%
    19:00 +19°C° 0 mm 0 mps 758 mmHg 56%
    20:00 +18°C° 0 mm 0 mps 759 mmHg 58%
    21:00 +20°C° 0 mm 1 mps 759 mmHg 60%
    22:00 +19°C° 0 mm 1 mps 759 mmHg 62%
    23:00 +18°C° 0 mm 1 mps 759 mmHg 64%

    Day after tomorrow, 19 October, Saturday

    Time Temperature Precipitation Wind Pressure Humidity
    00:00 +18°C° 0 mm 1 mps 759 mmHg 66%
    01:00 +18°C° 0 mm 1 mps 759 mmHg 68%
    02:00 +16°C° 0 mm 1 mps 759 mmHg 70%
    03:00 +16°C° 0 mm 1 mps 759 mmHg 71%
    04:00 +15°C° 0 mm 1 mps 759 mmHg 72%
    05:00 +14°C° 0 mm 0 mps 759 mmHg 73%
    06:00 +14°C° 0 mm 0 mps 760 mmHg 74%
    07:00 +15°C° 0 mm 0 mps 760 mmHg 69%
    08:00 +17°C° 0 mm 0 mps 760 mmHg 64%
    09:00 +18°C° 0 mm 0 mps 760 mmHg 59%
    10:00 +20°C° 0 mm 0 mps 760 mmHg 54%
    11:00 +22°C° 0 mm 0 mps 760 mmHg 49%
    12:00 +25°C° 0 mm 1 mps 760 mmHg 44%
    13:00 +26°C° 0 mm 1 mps 760 mmHg 43%
    14:00 +26°C° 0 mm 1 mps 760 mmHg 42%
    15:00 +26°C° 0 mm 1 mps 760 mmHg 41%
    16:00 +24°C° 0 mm 1 mps 760 mmHg 46%
    17:00 +23°C° 0 mm 1 mps 760 mmHg 51%
    18:00 +21°C° 0 mm 1 mps 760 mmHg 56%
    19:00 +20°C° 0 mm 1 mps 760 mmHg 58%
    20:00 +19°C° 0 mm 2 mps 760 mmHg 59%
    21:00 +18°C° 0 mm 2 mps 760 mmHg 60%
    22:00 +17°C° 0 mm 2 mps 760 mmHg 62%
    23:00 +17°C° 0 mm 2 mps 761 mmHg 64%

    20 October, Sunday

    Time Temperature Precipitation Wind Pressure Humidity
    00:00 +16°C° 0 mm 1 mps 761 mmHg 65%
    01:00 +16°C° 0 mm 1 mps 761 mmHg 66%
    02:00 +16°C° 0 mm 1 mps 761 mmHg 68%
    03:00 +14°C° 0 mm 0 mps 761 mmHg 69%
    04:00 +15°C° 0 mm 1 mps 761 mmHg 70%
    05:00 +15°C° 0 mm 1 mps 761 mmHg 72%
    06:00 +14°C° 0 mm 1 mps 761 mmHg 73%
    07:00 +16°C° 0 mm 1 mps 761 mmHg 68%
    08:00 +18°C° 0 mm 1 mps 762 mmHg 64%
    09:00 +19°C° 0 mm 1 mps 762 mmHg 60%
    10:00 +21°C° 0 mm 1 mps 762 mmHg 55%
    11:00 +23°C° 0 mm 2 mps 762 mmHg 50%
    12:00 +25°C° 0 mm 2 mps 762 mmHg 45%
    13:00 +25°C° 0 mm 2 mps 762 mmHg 44%
    14:00 +26°C° 0 mm 3 mps 761 mmHg 43%
    15:00 +26°C° 0 mm 3 mps 761 mmHg 42%
    16:00 +25°C° 0 mm 3 mps 761 mmHg 47%
    17:00 +22°C° 0 mm 3 mps 761 mmHg 52%
    18:00 +21°C° 0 mm 3 mps 761 mmHg 56%
    19:00 +20°C° 0 mm 4 mps 761 mmHg 58%
    20:00 +19°C° 0 mm 4 mps 761 mmHg 59%
    21:00 +18°C° 0 mm 4 mps 761 mmHg 60%
    22:00 +18°C° 0 mm 3 mps 761 mmHg 62%
    23:00 +17°C° 0 mm 3 mps 761 mmHg 63%

    21 October, Monday

    Time Temperature Precipitation Wind Pressure Humidity
    00:00 +16°C° 0 mm 3 mps 761 mmHg 64%
    01:00 +16°C° 0 mm 3 mps 761 mmHg 66%
    02:00 +15°C° 0 mm 2 mps 761 mmHg 67%
    03:00 +14°C° 0 mm 2 mps 761 mmHg 68%
    04:00 +14°C° 0 mm 2 mps 761 mmHg 69%
    05:00 +14°C° 0 mm 2 mps 761 mmHg 71%
    06:00 +13°C° 0 mm 2 mps 761 mmHg 72%
    07:00 +14°C° 0 mm 2 mps 762 mmHg 67%
    08:00 +16°C° 0 mm 3 mps 762 mmHg 63%
    09:00 +17°C° 0 mm 3 mps 762 mmHg 58%
    10:00 +18°C° 0 mm 3 mps 762 mmHg 54%
    11:00 +20°C° 0 mm 3 mps 762 mmHg 49%
    12:00 +22°C° 0 mm 4 mps 762 mmHg 45%
    13:00 +22°C° 0 mm 4 mps 761 mmHg 42%
    14:00 +23°C° 0 mm 4 mps 761 mmHg 40%
    15:00 +25°C° 0 mm 5 mps 761 mmHg 38%
    16:00 +22°C° 0 mm 4 mps 761 mmHg 41%
    17:00 +21°C° 0 mm 4 mps 761 mmHg 44%
    18:00 +19°C° 0 mm 4 mps 761 mmHg 47%
    19:00 +18°C° 0 mm 4 mps 761 mmHg 50%
    20:00 +18°C° 0 mm 4 mps 761 mmHg 54%
    21:00 +17°C° 0 mm 4 mps 761 mmHg 57%
    22:00 +15°C° 0 mm 4 mps 761 mmHg 61%
    23:00 +14°C° 0 mm 4 mps 761 mmHg 64%

    22 October, Tuesday

    Time Temperature Precipitation Wind Pressure Humidity
    00:00 +14°C° 0 mm 3 mps 760 mmHg 68%
    01:00 +13°C° 0 mm 3 mps 760 mmHg 70%
    02:00 +13°C° 0 mm 3 mps 760 mmHg 72%
    03:00 +13°C° 0 mm 2 mps 760 mmHg 74%
    04:00 +13°C° 0 mm 2 mps 760 mmHg 76%
    05:00 +13°C° 0 mm 2 mps 761 mmHg 77%
    06:00 +12°C° 0 mm 2 mps 761 mmHg 79%
    07:00 +13°C° 0 mm 2 mps 761 mmHg 75%
    08:00 +14°C° 0 mm 2 mps 761 mmHg 70%
    09:00 +16°C° 0 mm 3 mps 761 mmHg 66%
    10:00 +17°C° 0 mm 3 mps 761 mmHg 60%
    11:00 +19°C° 0 mm 3 mps 761 mmHg 55%
    12:00 +21°C° 0 mm 3 mps 761 mmHg 50%
    13:00 +21°C° 0 mm 3 mps 760 mmHg 48%
    14:00 +22°C° 0 mm 3 mps 760 mmHg 47%
    15:00 +22°C° 0 mm 3 mps 760 mmHg 46%
    16:00 +21°C° 0 mm 3 mps 760 mmHg 50%
    17:00 +19°C° 0 mm 3 mps 760 mmHg 54%
    18:00 +18°C° 0 mm 2 mps 760 mmHg 59%
    19:00 +17°C° 0 mm 2 mps 760 mmHg 61%
    20:00 +16°C° 0 mm 2 mps 760 mmHg 64%
    21:00 +15°C° 0 mm 2 mps 760 mmHg 66%
    22:00 +15°C° 0 mm 2 mps 760 mmHg 69%
    23:00 +14°C° 0 mm 2 mps 760 mmHg 72%
    Show more